TimeCST,TemperatureF,Dew PointF,Humidity,Sea Level PressureIn,VisibilityMPH,Wind Direction,Wind SpeedMPH,Gust SpeedMPH,PrecipitationIn,Events,Conditions,WindDirDegrees,DateUTC
12:15 AM,37.4,30.2,75,29.59,10.0,Calm,Calm,-,N/A,,Overcast,0,2013-02-14 06:15:00
12:35 AM,37.4,30.2,75,29.59,10.0,Calm,Calm,-,N/A,,Overcast,0,2013-02-14 06:35:00
12:55 AM,37.4,30.2,75,29.59,10.0,Calm,Calm,-,N/A,,Mostly Cloudy,0,2013-02-14 06:55:00
1:15 AM,37.4,30.2,75,29.58,10.0,Calm,Calm,-,N/A,,Clear,0,2013-02-14 07:15:00
1:35 AM,37.4,30.2,75,29.58,10.0,Calm,Calm,-,N/A,,Scattered Clouds,0,2013-02-14 07:35:00
1:55 AM,37.4,30.2,75,29.58,10.0,Calm,Calm,-,N/A,,Mostly Cloudy,0,2013-02-14 07:55:00
2:15 AM,37.4,30.2,75,29.58,10.0,SW,4.6,-,N/A,,Mostly Cloudy,230,2013-02-14 08:15:00
2:35 AM,37.4,30.2,75,29.58,10.0,WSW,4.6,-,N/A,,Scattered Clouds,240,2013-02-14 08:35:00
2:55 AM,37.4,30.2,75,29.58,10.0,WSW,4.6,-,N/A,,Mostly Cloudy,250,2013-02-14 08:55:00
3:15 AM,37.4,32.0,81,29.58,10.0,WSW,4.6,-,N/A,,Overcast,250,2013-02-14 09:15:00
3:35 AM,37.4,32.0,81,29.58,10.0,West,5.8,-,N/A,,Overcast,260,2013-02-14 09:35:00
3:55 AM,37.4,32.0,81,29.58,10.0,West,8.1,-,N/A,,Overcast,260,2013-02-14 09:55:00
4:15 AM,37.4,30.2,75,29.59,10.0,West,6.9,-,N/A,,Overcast,260,2013-02-14 10:15:00
4:35 AM,37.4,30.2,75,29.59,10.0,West,9.2,-,N/A,,Overcast,260,2013-02-14 10:35:00
4:55 AM,35.6,30.2,81,29.59,10.0,West,15.0,18.4,N/A,,Overcast,270,2013-02-14 10:55:00
5:15 AM,35.6,30.2,81,29.60,10.0,West,10.4,16.1,N/A,,Overcast,260,2013-02-14 11:15:00
5:35 AM,35.6,30.2,81,29.60,7.0,West,12.7,23.0,N/A,,Overcast,270,2013-02-14 11:35:00
5:55 AM,35.6,32.0,87,29.61,7.0,West,12.7,17.3,N/A,,Overcast,270,2013-02-14 11:55:00
6:15 AM,33.8,32.0,93,29.61,7.0,West,10.4,20.7,N/A,,Overcast,270,2013-02-14 12:15:00
6:35 AM,33.8,32.0,93,29.62,7.0,West,10.4,-,N/A,Rain,Light Rain,270,2013-02-14 12:35:00
6:55 AM,33.8,32.0,93,29.63,7.0,West,9.2,-,N/A,Rain,Light Rain,270,2013-02-14 12:55:00
7:15 AM,33.8,32.0,93,29.64,10.0,West,15.0,23.0,N/A,Rain,Light Rain,270,2013-02-14 13:15:00
7:35 AM,33.8,30.2,87,29.66,10.0,WNW,19.6,27.6,N/A,,Light Drizzle,300,2013-02-14 13:35:00
7:55 AM,33.8,30.2,87,29.68,10.0,WNW,18.4,26.5,N/A,,Light Drizzle,300,2013-02-14 13:55:00
8:15 AM,33.8,30.2,87,29.71,10.0,NW,17.3,25.3,N/A,,Overcast,310,2013-02-14 14:15:00
8:35 AM,33.8,28.4,81,29.72,10.0,NW,12.7,18.4,N/A,,Overcast,310,2013-02-14 14:35:00
8:55 AM,33.8,28.4,81,29.74,10.0,NW,11.5,21.9,N/A,,Overcast,320,2013-02-14 14:55:00
9:15 AM,33.8,28.4,81,29.75,10.0,NNW,9.2,24.2,N/A,,Mostly Cloudy,340,2013-02-14 15:15:00
9:35 AM,33.8,26.6,75,29.76,10.0,NW,15.0,23.0,N/A,,Mostly Cloudy,320,2013-02-14 15:35:00
9:55 AM,33.8,26.6,75,29.77,10.0,NW,17.3,21.9,N/A,,Overcast,310,2013-02-14 15:55:00
10:15 AM,33.8,24.8,70,29.79,10.0,NW,12.7,21.9,N/A,,Mostly Cloudy,320,2013-02-14 16:15:00
10:35 AM,33.8,24.8,70,29.79,10.0,NW,12.7,21.9,N/A,,Scattered Clouds,320,2013-02-14 16:35:00
10:55 AM,33.8,24.8,70,29.80,10.0,NW,11.5,19.6,N/A,,Scattered Clouds,310,2013-02-14 16:55:00
11:15 AM,35.6,23.0,60,29.81,10.0,NW,11.5,-,N/A,,Scattered Clouds,320,2013-02-14 17:15:00
11:35 AM,35.6,24.8,65,29.82,10.0,WNW,15.0,19.6,N/A,,Mostly Cloudy,300,2013-02-14 17:35:00
11:55 AM,35.6,23.0,60,29.83,10.0,NW,11.5,16.1,N/A,,Scattered Clouds,310,2013-02-14 17:55:00
12:15 PM,35.6,23.0,60,29.82,10.0,NW,12.7,21.9,N/A,,Mostly Cloudy,310,2013-02-14 18:15:00
12:35 PM,35.6,24.8,65,29.83,10.0,WNW,16.1,-,N/A,,Overcast,300,2013-02-14 18:35:00
12:55 PM,35.6,23.0,60,29.84,10.0,WNW,18.4,23.0,N/A,,Overcast,300,2013-02-14 18:55:00
1:15 PM,35.6,24.8,65,29.84,10.0,WNW,20.7,24.2,N/A,,Overcast,290,2013-02-14 19:15:00
1:35 PM,35.6,23.0,60,29.84,10.0,WNW,18.4,24.2,N/A,,Overcast,300,2013-02-14 19:35:00
1:55 PM,35.6,23.0,60,29.84,10.0,WNW,16.1,20.7,N/A,,Mostly Cloudy,300,2013-02-14 19:55:00
2:15 PM,35.6,23.0,60,29.85,10.0,WNW,11.5,21.9,N/A,,Mostly Cloudy,300,2013-02-14 20:15:00
2:35 PM,35.6,21.2,56,29.86,10.0,WNW,17.3,27.6,N/A,,Mostly Cloudy,300,2013-02-14 20:35:00
2:55 PM,35.6,23.0,60,29.87,10.0,WNW,11.5,16.1,N/A,,Mostly Cloudy,290,2013-02-14 20:55:00
3:15 PM,35.6,23.0,60,29.88,10.0,West,13.8,18.4,N/A,,Overcast,270,2013-02-14 21:15:00
3:35 PM,35.6,23.0,60,29.88,10.0,West,12.7,18.4,N/A,,Overcast,270,2013-02-14 21:35:00
3:55 PM,35.6,21.2,56,29.89,10.0,West,15.0,18.4,N/A,,Overcast,280,2013-02-14 21:55:00
4:15 PM,35.6,21.2,56,29.90,10.0,West,10.4,-,N/A,,Overcast,280,2013-02-14 22:15:00
4:35 PM,35.6,21.2,56,29.91,10.0,West,11.5,-,N/A,,Overcast,270,2013-02-14 22:35:00
4:55 PM,33.8,23.0,65,29.92,10.0,West,11.5,17.3,N/A,,Overcast,280,2013-02-14 22:55:00
5:15 PM,33.8,23.0,65,29.92,10.0,West,11.5,16.1,N/A,,Overcast,270,2013-02-14 23:15:00
5:35 PM,33.8,23.0,65,29.93,10.0,WNW,10.4,-,N/A,,Overcast,300,2013-02-14 23:35:00
5:55 PM,33.8,21.2,60,29.94,10.0,WNW,12.7,16.1,N/A,,Overcast,290,2013-02-14 23:55:00
6:15 PM,33.8,23.0,65,29.95,10.0,NW,9.2,-,N/A,,Overcast,310,2013-02-15 00:15:00
6:35 PM,32.0,24.8,75,29.96,10.0,NW,9.2,-,N/A,,Mostly Cloudy,310,2013-02-15 00:35:00
6:55 PM,32.0,24.8,75,29.96,10.0,WNW,5.8,-,N/A,,Overcast,290,2013-02-15 00:55:00
7:15 PM,32.0,24.8,75,29.97,10.0,WNW,8.1,-,N/A,,Scattered Clouds,290,2013-02-15 01:15:00
7:55 PM,32.0,24.8,75,29.98,10.0,WNW,8.1,-,N/A,,Overcast,290,2013-02-15 01:55:00
8:15 PM,32.0,24.8,75,29.99,10.0,WNW,9.2,-,N/A,,Mostly Cloudy,300,2013-02-15 02:15:00
8:35 PM,32.0,24.8,75,30.00,10.0,WNW,9.2,-,N/A,,Mostly Cloudy,300,2013-02-15 02:35:00
8:55 PM,32.0,21.2,64,30.00,10.0,NW,13.8,20.7,N/A,,Overcast,320,2013-02-15 02:55:00
9:15 PM,30.2,21.2,69,30.01,10.0,NW,11.5,18.4,N/A,,Overcast,310,2013-02-15 03:15:00
9:35 PM,30.2,21.2,69,30.02,10.0,NW,11.5,19.6,N/A,,Overcast,310,2013-02-15 03:35:00
9:55 PM,28.4,19.4,69,30.03,10.0,NW,16.1,20.7,N/A,,Mostly Cloudy,310,2013-02-15 03:55:00
10:15 PM,28.4,17.6,64,30.03,10.0,NW,15.0,21.9,N/A,,Scattered Clouds,310,2013-02-15 04:15:00
10:35 PM,26.6,14.0,59,30.04,10.0,NW,18.4,24.2,N/A,,Scattered Clouds,310,2013-02-15 04:35:00
10:55 PM,26.6,12.2,55,30.06,10.0,NW,17.3,25.3,N/A,,Scattered Clouds,320,2013-02-15 04:55:00
11:15 PM,24.8,12.2,59,30.06,10.0,NW,15.0,23.0,N/A,,Clear,320,2013-02-15 05:15:00
11:35 PM,24.8,12.2,59,30.07,10.0,NW,15.0,18.4,N/A,,Clear,320,2013-02-15 05:35:00
11:55 PM,24.8,10.4,54,30.08,10.0,NW,11.5,-,N/A,,Clear,320,2013-02-15 05:55:00